contact:dominique.lefevre@mio.osupytheas.fr, maurice.libes@osupytheas.fr, didier.mallarino@osupytheas.fr
Project:EMSO http://www.emso-fr.org/EMSO-France
Depth: 2436.0 m
Title:EMSO Ligure Ouest : Data MII capteur MICROCAT
DateTime_Computer,Latitude,Longitude,Temperature,Conductivity,Pressure,DateTime_Instrument
DateTime_Computer,Latitude,Longitude,degC,S m-1,dbar,DateTime_Instrument
2017-11-24T00:02:47Z,42.805,6.029,13.2950,4.59990,2472.123,2017-11-24T02:04:15Z
2017-11-24T00:05:50Z,42.805,6.029,13.2948,4.59990,2472.092,2017-11-24T02:07:18Z
2017-11-24T00:08:53Z,42.805,6.029,13.2954,4.59998,2472.1,2017-11-24T02:10:21Z
2017-11-24T00:11:55Z,42.805,6.029,13.2951,4.59984,2472.1,2017-11-24T02:13:24Z
2017-11-24T00:14:58Z,42.805,6.029,13.2955,4.59984,2472.115,2017-11-24T02:16:26Z
2017-11-24T00:18:01Z,42.805,6.029,13.2950,4.59974,2472.077,2017-11-24T02:19:29Z
2017-11-24T00:21:04Z,42.805,6.029,13.2954,4.59977,2472.115,2017-11-24T02:22:32Z
2017-11-24T00:24:07Z,42.805,6.029,13.2952,4.59985,2472.092,2017-11-24T02:25:35Z
2017-11-24T00:27:10Z,42.805,6.029,13.2954,4.59984,2472.115,2017-11-24T02:28:38Z
2017-11-24T00:30:13Z,42.805,6.029,13.2945,4.59975,2472.115,2017-11-24T02:31:41Z
2017-11-24T00:33:16Z,42.805,6.029,13.2949,4.59981,2472.055,2017-11-24T02:34:44Z
2017-11-24T00:36:19Z,42.805,6.029,13.2950,4.59987,2472.092,2017-11-24T02:37:47Z
2017-11-24T00:39:21Z,42.805,6.029,13.2945,4.59983,2472.069,2017-11-24T02:40:50Z
2017-11-24T00:42:24Z,42.805,6.029,13.2951,4.59990,2472.092,2017-11-24T02:43:52Z
2017-11-24T00:45:27Z,42.805,6.029,13.2950,4.59984,2472.01,2017-11-24T02:46:55Z
2017-11-24T00:48:30Z,42.805,6.029,13.2949,4.59998,2472.069,2017-11-24T02:49:58Z
2017-11-24T00:51:33Z,42.805,6.029,13.2953,4.60010,2472.129,2017-11-24T02:53:01Z
2017-11-24T00:54:36Z,42.805,6.029,13.2950,4.60006,2472.115,2017-11-24T02:56:04Z
2017-11-24T00:57:39Z,42.805,6.029,13.2949,4.59995,2472.092,2017-11-24T02:59:07Z
2017-11-24T01:00:42Z,42.805,6.029,13.2948,4.59988,2472.069,2017-11-24T03:02:10Z
2017-11-24T01:03:45Z,42.805,6.029,13.2961,4.59992,2472.069,2017-11-24T03:05:13Z
2017-11-24T01:06:47Z,42.805,6.029,13.2951,4.60001,2472.092,2017-11-24T03:08:16Z
2017-11-24T01:09:50Z,42.805,6.029,13.2948,4.59987,2472.069,2017-11-24T03:11:18Z
2017-11-24T01:12:53Z,42.805,6.029,13.2946,4.59995,2472.069,2017-11-24T03:14:21Z
2017-11-24T01:15:56Z,42.805,6.029,13.2954,4.59980,2472.055,2017-11-24T03:17:24Z
2017-11-24T01:18:59Z,42.805,6.029,13.2949,4.59998,2472.069,2017-11-24T03:20:27Z
2017-11-24T01:22:02Z,42.805,6.029,13.2953,4.59998,2472.069,2017-11-24T03:23:30Z
2017-11-24T01:25:05Z,42.805,6.029,13.2950,4.60012,2472.047,2017-11-24T03:26:33Z
2017-11-24T01:28:08Z,42.805,6.029,13.2965,4.59999,2472.069,2017-11-24T03:29:36Z
2017-11-24T01:31:11Z,42.805,6.029,13.2953,4.59999,2472.047,2017-11-24T03:32:39Z
2017-11-24T01:34:14Z,42.805,6.029,13.2952,4.59996,2472.092,2017-11-24T03:35:42Z
2017-11-24T01:37:16Z,42.805,6.029,13.2956,4.59998,2472.055,2017-11-24T03:38:44Z
2017-11-24T01:40:19Z,42.805,6.029,13.2950,4.59990,2472.092,2017-11-24T03:41:47Z
2017-11-24T01:43:22Z,42.805,6.029,13.2950,4.59991,2472.092,2017-11-24T03:44:50Z
2017-11-24T01:46:25Z,42.805,6.029,13.2962,4.59996,2472.047,2017-11-24T03:47:53Z
2017-11-24T01:49:28Z,42.805,6.029,13.2948,4.59988,2472.069,2017-11-24T03:50:56Z
2017-11-24T01:52:31Z,42.805,6.029,13.2953,4.60002,2472.055,2017-11-24T03:53:59Z
2017-11-24T01:55:34Z,42.805,6.029,13.2950,4.60009,2472.032,2017-11-24T03:57:02Z
2017-11-24T01:58:37Z,42.805,6.029,13.2973,4.60009,2472.024,2017-11-24T04:00:05Z
2017-11-24T02:01:40Z,42.805,6.029,13.2961,4.60018,2472.032,2017-11-24T04:03:08Z
2017-11-24T02:04:42Z,42.805,6.029,13.2961,4.60012,2472.047,2017-11-24T04:06:11Z
2017-11-24T02:07:45Z,42.805,6.029,13.2955,4.60038,2472.069,2017-11-24T04:09:13Z
2017-11-24T02:10:48Z,42.805,6.029,13.2961,4.60032,2472.032,2017-11-24T04:12:16Z
2017-11-24T02:13:51Z,42.805,6.029,13.2953,4.60019,2472.047,2017-11-24T04:15:19Z
2017-11-24T02:16:54Z,42.805,6.029,13.2951,4.60001,2472.055,2017-11-24T04:18:22Z
2017-11-24T02:19:57Z,42.805,6.029,13.2958,4.60004,2472.047,2017-11-24T04:21:25Z
2017-11-24T02:23:00Z,42.805,6.029,13.2957,4.60019,2472.047,2017-11-24T04:24:28Z
2017-11-24T02:26:03Z,42.805,6.029,13.2959,4.60026,2472.047,2017-11-24T04:27:31Z
2017-11-24T02:29:06Z,42.805,6.029,13.2975,4.60040,2472.047,2017-11-24T04:30:34Z
2017-11-24T02:32:08Z,42.805,6.029,13.2982,4.60040,2472.039,2017-11-24T04:33:37Z
2017-11-24T02:35:11Z,42.805,6.029,13.2962,4.60028,2472.047,2017-11-24T04:36:39Z
2017-11-24T02:38:14Z,42.805,6.029,13.2981,4.60044,2472.032,2017-11-24T04:39:42Z
2017-11-24T02:41:17Z,42.805,6.029,13.2968,4.60033,2472.01,2017-11-24T04:42:45Z
2017-11-24T02:44:20Z,42.805,6.029,13.2964,4.60032,2472.069,2017-11-24T04:45:48Z
2017-11-24T02:47:23Z,42.805,6.029,13.2957,4.60048,2472.047,2017-11-24T04:48:51Z
2017-11-24T02:50:26Z,42.805,6.029,13.2969,4.60049,2472.047,2017-11-24T04:51:54Z
2017-11-24T02:53:29Z,42.805,6.029,13.2978,4.60025,2472.069,2017-11-24T04:54:57Z
2017-11-24T02:56:32Z,42.805,6.029,13.2964,4.60034,2472.047,2017-11-24T04:58:00Z
2017-11-24T02:59:34Z,42.805,6.029,13.2979,4.60014,2472.047,2017-11-24T05:01:03Z
2017-11-24T03:02:37Z,42.805,6.029,13.2961,4.60019,2472.01,2017-11-24T05:04:05Z
2017-11-24T03:05:40Z,42.805,6.029,13.2978,4.60031,2472.024,2017-11-24T05:07:08Z
2017-11-24T03:08:43Z,42.805,6.029,13.2975,4.60035,2472.047,2017-11-24T05:10:11Z
2017-11-24T03:11:46Z,42.805,6.029,13.2971,4.60031,2472.032,2017-11-24T05:13:14Z
2017-11-24T03:14:49Z,42.805,6.029,13.2970,4.60025,2472.055,2017-11-24T05:16:17Z
2017-11-24T03:17:52Z,42.805,6.029,13.2984,4.60033,2472.032,2017-11-24T05:19:20Z
2017-11-24T03:20:55Z,42.805,6.029,13.2980,4.60030,2472.069,2017-11-24T05:22:23Z
2017-11-24T03:23:58Z,42.805,6.029,13.2978,4.60046,2472.032,2017-11-24T05:25:26Z
2017-11-24T03:27:00Z,42.805,6.029,13.2980,4.60024,2472.024,2017-11-24T05:28:29Z
2017-11-24T03:30:03Z,42.805,6.029,13.2977,4.60035,2472.024,2017-11-24T05:31:31Z
2017-11-24T03:33:06Z,42.805,6.029,13.2966,4.60023,2472.055,2017-11-24T05:34:34Z
2017-11-24T03:36:09Z,42.805,6.029,13.2972,4.60029,2472.069,2017-11-24T05:37:37Z
2017-11-24T03:39:12Z,42.805,6.029,13.2979,4.60036,2472.024,2017-11-24T05:40:40Z
2017-11-24T03:42:15Z,42.805,6.029,13.2954,4.60023,2472.047,2017-11-24T05:43:43Z
2017-11-24T03:45:18Z,42.805,6.029,13.2985,4.60023,2472.055,2017-11-24T05:46:46Z
2017-11-24T03:48:21Z,42.805,6.029,13.2990,4.60036,2472.024,2017-11-24T05:49:49Z
2017-11-24T03:51:24Z,42.805,6.029,13.2982,4.60014,2472.01,2017-11-24T05:52:52Z
2017-11-24T03:54:27Z,42.805,6.029,13.2979,4.60017,2472.047,2017-11-24T05:55:55Z
2017-11-24T03:57:29Z,42.805,6.029,13.2980,4.60031,2472.002,2017-11-24T05:58:58Z
2017-11-24T04:00:32Z,42.805,6.029,13.2996,4.60025,2472.047,2017-11-24T06:02:00Z
2017-11-24T04:03:35Z,42.805,6.029,13.2964,4.60022,2472.047,2017-11-24T06:05:03Z
2017-11-24T04:06:38Z,42.805,6.029,13.2973,4.60012,2472.024,2017-11-24T06:08:06Z
2017-11-24T04:09:41Z,42.805,6.029,13.2975,4.60026,2472.032,2017-11-24T06:11:09Z
2017-11-24T04:12:44Z,42.805,6.029,13.2973,4.60048,2472.069,2017-11-24T06:14:12Z
2017-11-24T04:15:47Z,42.805,6.029,13.2985,4.60028,2472.047,2017-11-24T06:17:15Z
2017-11-24T04:18:50Z,42.805,6.029,13.3000,4.60029,2472.032,2017-11-24T06:20:18Z
2017-11-24T04:21:53Z,42.805,6.029,13.2961,4.60012,2472.047,2017-11-24T06:23:21Z
2017-11-24T04:24:55Z,42.805,6.029,13.2947,4.60031,2472.024,2017-11-24T06:26:24Z
2017-11-24T04:27:58Z,42.805,6.029,13.2965,4.60052,2472.01,2017-11-24T06:29:26Z
2017-11-24T04:31:01Z,42.805,6.029,13.2975,4.60038,2472.024,2017-11-24T06:32:29Z
2017-11-24T04:34:04Z,42.805,6.029,13.2973,4.60021,2472.01,2017-11-24T06:35:32Z
2017-11-24T04:37:07Z,42.805,6.029,13.2959,4.60042,2472.01,2017-11-24T06:38:35Z
2017-11-24T04:40:10Z,42.805,6.029,13.2969,4.59986,2472.024,2017-11-24T06:41:38Z
2017-11-24T04:43:13Z,42.805,6.029,13.2960,4.59995,2472.032,2017-11-24T06:44:41Z
2017-11-24T04:46:16Z,42.805,6.029,13.2964,4.60025,2472.024,2017-11-24T06:47:44Z
2017-11-24T04:49:19Z,42.805,6.029,13.2991,4.60041,2472.047,2017-11-24T06:50:47Z
2017-11-24T04:52:22Z,42.805,6.029,13.2987,4.60015,2472.047,2017-11-24T06:53:50Z
2017-11-24T04:55:24Z,42.805,6.029,13.2982,4.60023,2472.047,2017-11-24T06:56:52Z
2017-11-24T04:58:27Z,42.805,6.029,13.2951,4.59974,2472.032,2017-11-24T06:59:55Z
2017-11-24T05:01:30Z,42.805,6.029,13.2957,4.59998,2472.024,2017-11-24T07:02:58Z
2017-11-24T05:04:33Z,42.805,6.029,13.2954,4.59981,2472.047,2017-11-24T07:06:01Z
2017-11-24T05:07:36Z,42.805,6.029,13.2973,4.60014,2472.01,2017-11-24T07:09:04Z
2017-11-24T05:10:39Z,42.805,6.029,13.2949,4.59983,2472.002,2017-11-24T07:12:07Z
2017-11-24T05:13:42Z,42.805,6.029,13.2970,4.60007,2472.047,2017-11-24T07:15:10Z
2017-11-24T05:16:45Z,42.805,6.029,13.2965,4.60003,2472.047,2017-11-24T07:18:13Z
2017-11-24T05:19:47Z,42.805,6.029,13.2950,4.60009,2472.069,2017-11-24T07:21:16Z
2017-11-24T05:22:50Z,42.805,6.029,13.2963,4.59976,2472.024,2017-11-24T07:24:19Z
2017-11-24T05:25:53Z,42.805,6.029,13.2951,4.59991,2472.047,2017-11-24T07:27:21Z
2017-11-24T05:28:56Z,42.805,6.029,13.2956,4.59984,2472.047,2017-11-24T07:30:24Z
2017-11-24T05:31:59Z,42.805,6.029,13.2957,4.59987,2472.01,2017-11-24T07:33:27Z
2017-11-24T05:35:02Z,42.805,6.029,13.2952,4.59973,2472.047,2017-11-24T07:36:30Z
2017-11-24T05:38:05Z,42.805,6.029,13.2974,4.59974,2472.055,2017-11-24T07:39:33Z
2017-11-24T05:41:08Z,42.805,6.029,13.2981,4.59995,2472.032,2017-11-24T07:42:36Z
2017-11-24T05:44:11Z,42.805,6.029,13.2965,4.59999,2472.047,2017-11-24T07:45:39Z
2017-11-24T05:47:14Z,42.805,6.029,13.2953,4.60011,2472.024,2017-11-24T07:48:42Z
2017-11-24T05:50:16Z,42.805,6.029,13.2964,4.60029,2472.032,2017-11-24T07:51:45Z
2017-11-24T05:53:19Z,42.805,6.029,13.2982,4.59995,2472.069,2017-11-24T07:54:47Z
2017-11-24T05:56:22Z,42.805,6.029,13.2972,4.60004,2472.047,2017-11-24T07:57:50Z
2017-11-24T05:59:25Z,42.805,6.029,13.2974,4.59979,2472.047,2017-11-24T08:00:53Z
2017-11-24T06:02:28Z,42.805,6.029,13.2964,4.59990,2472.092,2017-11-24T08:03:56Z
2017-11-24T06:05:31Z,42.805,6.029,13.2984,4.59981,2472.047,2017-11-24T08:06:59Z
2017-11-24T06:08:34Z,42.805,6.029,13.2969,4.59994,2472.069,2017-11-24T08:10:02Z
2017-11-24T06:11:37Z,42.805,6.029,13.2966,4.59974,2472.069,2017-11-24T08:13:05Z
2017-11-24T06:14:40Z,42.805,6.029,13.2961,4.59978,2472.092,2017-11-24T08:16:08Z
2017-11-24T06:17:42Z,42.805,6.029,13.2958,4.59974,2472.084,2017-11-24T08:19:11Z
2017-11-24T06:20:45Z,42.805,6.029,13.2970,4.59983,2472.069,2017-11-24T08:22:13Z
2017-11-24T06:23:48Z,42.805,6.029,13.2952,4.60002,2472.092,2017-11-24T08:25:16Z
2017-11-24T06:26:51Z,42.805,6.029,13.2970,4.59991,2472.069,2017-11-24T08:28:19Z
2017-11-24T06:29:54Z,42.805,6.029,13.2967,4.59986,2472.069,2017-11-24T08:31:22Z
2017-11-24T06:32:57Z,42.805,6.029,13.2952,4.60011,2472.069,2017-11-24T08:34:25Z
2017-11-24T06:36:00Z,42.805,6.029,13.2957,4.59989,2472.055,2017-11-24T08:37:28Z
2017-11-24T06:39:03Z,42.805,6.029,13.2951,4.60001,2472.092,2017-11-24T08:40:31Z
2017-11-24T06:42:06Z,42.805,6.029,13.2961,4.60003,2472.115,2017-11-24T08:43:34Z
2017-11-24T06:45:08Z,42.805,6.029,13.2979,4.59998,2472.055,2017-11-24T08:46:37Z
2017-11-24T06:48:11Z,42.805,6.029,13.2983,4.59987,2472.077,2017-11-24T08:49:39Z
2017-11-24T06:51:14Z,42.805,6.029,13.2963,4.59992,2472.077,2017-11-24T08:52:42Z
2017-11-24T06:54:17Z,42.805,6.029,13.2954,4.59982,2472.092,2017-11-24T08:55:45Z
2017-11-24T06:57:20Z,42.805,6.029,13.2967,4.59981,2472.092,2017-11-24T08:58:48Z
2017-11-24T07:00:23Z,42.805,6.029,13.2952,4.60042,2472.069,2017-11-24T09:01:51Z
2017-11-24T07:03:26Z,42.805,6.029,13.2959,4.59981,2472.092,2017-11-24T09:04:54Z
2017-11-24T07:06:29Z,42.805,6.029,13.2960,4.59981,2472.115,2017-11-24T09:07:57Z
2017-11-24T07:09:32Z,42.805,6.029,13.2958,4.59999,2472.092,2017-11-24T09:11:00Z
2017-11-24T07:12:35Z,42.805,6.029,13.2971,4.59983,2472.092,2017-11-24T09:14:03Z
2017-11-24T07:15:37Z,42.805,6.029,13.2973,4.60012,2472.1,2017-11-24T09:17:06Z
2017-11-24T07:18:40Z,42.805,6.029,13.2981,4.59989,2472.077,2017-11-24T09:20:08Z
2017-11-24T07:21:43Z,42.805,6.029,13.2961,4.59981,2472.115,2017-11-24T09:23:11Z
2017-11-24T07:24:46Z,42.805,6.029,13.2998,4.59983,2472.115,2017-11-24T09:26:14Z
2017-11-24T07:27:49Z,42.805,6.029,13.2957,4.59995,2472.077,2017-11-24T09:29:17Z
2017-11-24T07:30:52Z,42.805,6.029,13.2960,4.59977,2472.092,2017-11-24T09:32:20Z
2017-11-24T07:33:55Z,42.805,6.029,13.2973,4.59992,2472.1,2017-11-24T09:35:23Z
2017-11-24T07:36:58Z,42.805,6.029,13.2965,4.59991,2472.145,2017-11-24T09:38:26Z
2017-11-24T07:40:01Z,42.805,6.029,13.2965,4.59986,2472.137,2017-11-24T09:41:29Z
2017-11-24T07:43:03Z,42.805,6.029,13.2982,4.59979,2472.137,2017-11-24T09:44:32Z
2017-11-24T07:46:06Z,42.805,6.029,13.2961,4.59984,2472.175,2017-11-24T09:47:34Z
2017-11-24T07:49:09Z,42.805,6.029,13.2963,4.59987,2472.137,2017-11-24T09:50:37Z
2017-11-24T07:52:12Z,42.805,6.029,13.2982,4.59999,2472.145,2017-11-24T09:53:40Z
2017-11-24T07:55:15Z,42.805,6.029,13.2985,4.60009,2472.137,2017-11-24T09:56:43Z
2017-11-24T07:58:18Z,42.805,6.029,13.2978,4.59998,2472.137,2017-11-24T09:59:46Z
2017-11-24T08:01:21Z,42.805,6.029,13.2974,4.60001,2472.16,2017-11-24T10:02:49Z
2017-11-24T08:04:24Z,42.805,6.029,13.2982,4.59988,2472.16,2017-11-24T10:05:52Z
2017-11-24T08:07:27Z,42.805,6.029,13.2975,4.59991,2472.137,2017-11-24T10:08:55Z
2017-11-24T08:10:29Z,42.805,6.029,13.2970,4.59981,2472.16,2017-11-24T10:11:58Z
2017-11-24T08:13:32Z,42.805,6.029,13.2970,4.59995,2472.145,2017-11-24T10:15:00Z
2017-11-24T08:16:35Z,42.805,6.029,13.2973,4.59995,2472.137,2017-11-24T10:18:03Z
2017-11-24T08:19:38Z,42.805,6.029,13.3008,4.59995,2472.145,2017-11-24T10:21:06Z
2017-11-24T08:22:41Z,42.805,6.029,13.2965,4.60000,2472.137,2017-11-24T10:24:09Z
2017-11-24T08:25:44Z,42.805,6.029,13.2995,4.59986,2472.123,2017-11-24T10:27:12Z
2017-11-24T08:28:47Z,42.805,6.029,13.2965,4.59981,2472.16,2017-11-24T10:30:15Z
2017-11-24T08:31:50Z,42.805,6.029,13.2985,4.59986,2472.182,2017-11-24T10:33:18Z
2017-11-24T08:34:53Z,42.805,6.029,13.2965,4.59999,2472.16,2017-11-24T10:36:21Z
2017-11-24T08:37:56Z,42.805,6.029,13.2975,4.59998,2472.19,2017-11-24T10:39:24Z
2017-11-24T08:40:58Z,42.805,6.029,13.2970,4.59978,2472.182,2017-11-24T10:42:27Z
2017-11-24T08:44:01Z,42.805,6.029,13.2953,4.59984,2472.145,2017-11-24T10:45:29Z
2017-11-24T08:47:04Z,42.805,6.029,13.2965,4.59987,2472.168,2017-11-24T10:48:32Z
2017-11-24T08:50:07Z,42.805,6.029,13.2968,4.59979,2472.182,2017-11-24T10:51:35Z
2017-11-24T08:53:10Z,42.805,6.029,13.2968,4.59986,2472.168,2017-11-24T10:54:38Z
2017-11-24T08:56:13Z,42.805,6.029,13.2957,4.59977,2472.205,2017-11-24T10:57:41Z
2017-11-24T08:59:16Z,42.805,6.029,13.2951,4.59987,2472.205,2017-11-24T11:00:44Z
2017-11-24T09:02:19Z,42.805,6.029,13.2966,4.59980,2472.168,2017-11-24T11:03:47Z
2017-11-24T09:05:22Z,42.805,6.029,13.2970,4.59990,2472.205,2017-11-24T11:06:50Z
2017-11-24T09:08:25Z,42.805,6.029,13.2962,4.59983,2472.205,2017-11-24T11:09:53Z
2017-11-24T09:11:27Z,42.805,6.029,13.2967,4.59990,2472.205,2017-11-24T11:12:56Z
2017-11-24T09:14:30Z,42.805,6.029,13.2971,4.59978,2472.227,2017-11-24T11:15:58Z
2017-11-24T09:17:33Z,42.805,6.029,13.2975,4.59972,2472.19,2017-11-24T11:19:01Z
2017-11-24T09:20:36Z,42.805,6.029,13.2975,4.59980,2472.227,2017-11-24T11:22:04Z
2017-11-24T09:23:39Z,42.805,6.029,13.2968,4.59997,2472.227,2017-11-24T11:25:07Z
2017-11-24T09:26:42Z,42.805,6.029,13.2965,4.59983,2472.205,2017-11-24T11:28:10Z
2017-11-24T09:29:45Z,42.805,6.029,13.2973,4.59988,2472.205,2017-11-24T11:31:13Z
2017-11-24T09:32:48Z,42.805,6.029,13.2976,4.59986,2472.19,2017-11-24T11:34:16Z
2017-11-24T09:35:51Z,42.805,6.029,13.2966,4.59994,2472.19,2017-11-24T11:37:19Z
2017-11-24T09:38:53Z,42.805,6.029,13.2982,4.59986,2472.205,2017-11-24T11:40:22Z
2017-11-24T09:41:56Z,42.805,6.029,13.2983,4.59993,2472.205,2017-11-24T11:43:24Z
2017-11-24T09:44:59Z,42.805,6.029,13.2957,4.59994,2472.25,2017-11-24T11:46:27Z
2017-11-24T09:48:02Z,42.805,6.029,13.3005,4.60008,2472.227,2017-11-24T11:49:30Z
2017-11-24T09:51:05Z,42.805,6.029,13.2973,4.60012,2472.213,2017-11-24T11:52:33Z
2017-11-24T09:54:08Z,42.805,6.029,13.2967,4.59998,2472.227,2017-11-24T11:55:36Z
2017-11-24T09:57:11Z,42.805,6.029,13.3049,4.59982,2472.227,2017-11-24T11:58:39Z
2017-11-24T10:00:14Z,42.805,6.029,13.3010,4.59990,2472.205,2017-11-24T12:01:42Z
2017-11-24T10:03:17Z,42.805,6.029,13.2978,4.59984,2472.227,2017-11-24T12:04:45Z
2017-11-24T10:06:20Z,42.805,6.029,13.2979,4.59982,2472.205,2017-11-24T12:07:48Z
2017-11-24T10:09:22Z,42.805,6.029,13.2966,4.59981,2472.227,2017-11-24T12:10:51Z
2017-11-24T10:12:25Z,42.805,6.029,13.2965,4.59982,2472.258,2017-11-24T12:13:53Z
2017-11-24T10:15:28Z,42.805,6.029,13.2997,4.59990,2472.227,2017-11-24T12:16:56Z
2017-11-24T10:18:31Z,42.805,6.029,13.2975,4.59999,2472.205,2017-11-24T12:19:59Z
2017-11-24T10:21:34Z,42.805,6.029,13.2967,4.59992,2472.227,2017-11-24T12:23:02Z
2017-11-24T10:24:37Z,42.805,6.029,13.2985,4.59975,2472.213,2017-11-24T12:26:05Z
2017-11-24T10:27:40Z,42.805,6.029,13.2968,4.59987,2472.213,2017-11-24T12:29:08Z
2017-11-24T10:30:43Z,42.805,6.029,13.2966,4.60002,2472.227,2017-11-24T12:32:11Z
2017-11-24T10:33:46Z,42.805,6.029,13.2979,4.60002,2472.227,2017-11-24T12:35:14Z
2017-11-24T10:36:49Z,42.805,6.029,13.2978,4.60020,2472.19,2017-11-24T12:38:17Z
2017-11-24T10:39:51Z,42.805,6.029,13.2967,4.59988,2472.227,2017-11-24T12:41:20Z
2017-11-24T10:42:54Z,42.805,6.029,13.2987,4.59984,2472.19,2017-11-24T12:44:22Z
2017-11-24T10:45:57Z,42.805,6.029,13.2979,4.60008,2472.205,2017-11-24T12:47:25Z
2017-11-24T10:49:00Z,42.805,6.029,13.2990,4.59984,2472.213,2017-11-24T12:50:28Z
2017-11-24T10:52:03Z,42.805,6.029,13.2985,4.59986,2472.182,2017-11-24T12:53:31Z
2017-11-24T10:55:06Z,42.805,6.029,13.2960,4.60000,2472.227,2017-11-24T12:56:34Z
2017-11-24T10:58:09Z,42.805,6.029,13.2962,4.60003,2472.19,2017-11-24T12:59:37Z
2017-11-24T11:01:12Z,42.805,6.029,13.2960,4.60001,2472.205,2017-11-24T13:02:40Z
2017-11-24T11:04:15Z,42.805,6.029,13.2951,4.59994,2472.205,2017-11-24T13:05:43Z
2017-11-24T11:07:17Z,42.805,6.029,13.2952,4.60005,2472.205,2017-11-24T13:08:46Z
2017-11-24T11:10:20Z,42.805,6.029,13.2965,4.59982,2472.205,2017-11-24T13:11:48Z
2017-11-24T11:13:23Z,42.805,6.029,13.2965,4.59993,2472.227,2017-11-24T13:14:51Z
2017-11-24T11:16:26Z,42.805,6.029,13.2971,4.59978,2472.205,2017-11-24T13:17:54Z
2017-11-24T11:19:29Z,42.805,6.029,13.2966,4.59975,2472.227,2017-11-24T13:20:57Z
2017-11-24T11:22:32Z,42.805,6.029,13.2973,4.59995,2472.19,2017-11-24T13:24:00Z
2017-11-24T11:25:35Z,42.805,6.029,13.2970,4.59986,2472.19,2017-11-24T13:27:03Z
2017-11-24T11:28:38Z,42.805,6.029,13.2964,4.59985,2472.205,2017-11-24T13:30:06Z
2017-11-24T11:31:41Z,42.805,6.029,13.2967,4.59989,2472.182,2017-11-24T13:33:09Z
2017-11-24T11:34:44Z,42.805,6.029,13.2972,4.59984,2472.168,2017-11-24T13:36:12Z
2017-11-24T11:37:46Z,42.805,6.029,13.2961,4.59984,2472.25,2017-11-24T13:39:15Z
2017-11-24T11:40:49Z,42.805,6.029,13.2961,4.60000,2472.182,2017-11-24T13:42:17Z
2017-11-24T11:43:52Z,42.805,6.029,13.2964,4.60001,2472.182,2017-11-24T13:45:20Z
2017-11-24T11:46:55Z,42.805,6.029,13.2972,4.60008,2472.182,2017-11-24T13:48:23Z
2017-11-24T11:49:58Z,42.805,6.029,13.2974,4.59992,2472.19,2017-11-24T13:51:26Z
2017-11-24T11:53:01Z,42.805,6.029,13.2991,4.59988,2472.227,2017-11-24T13:54:29Z
2017-11-24T11:56:04Z,42.805,6.029,13.2972,4.59984,2472.205,2017-11-24T13:57:32Z
2017-11-24T11:59:07Z,42.805,6.029,13.2973,4.59991,2472.227,2017-11-24T14:00:35Z
2017-11-24T12:02:10Z,42.805,6.029,13.2971,4.60006,2472.182,2017-11-24T14:03:38Z
2017-11-24T12:05:13Z,42.805,6.029,13.2988,4.60003,2472.205,2017-11-24T14:06:41Z
2017-11-24T12:08:15Z,42.805,6.029,13.2991,4.59994,2472.205,2017-11-24T14:09:44Z
2017-11-24T12:11:18Z,42.805,6.029,13.2983,4.59982,2472.145,2017-11-24T14:12:46Z
2017-11-24T12:14:21Z,42.805,6.029,13.2967,4.60003,2472.16,2017-11-24T14:15:49Z
2017-11-24T12:17:24Z,42.805,6.029,13.2996,4.59989,2472.227,2017-11-24T14:18:52Z
2017-11-24T12:20:27Z,42.805,6.029,13.2984,4.59993,2472.205,2017-11-24T14:21:55Z
2017-11-24T12:23:30Z,42.805,6.029,13.2991,4.59988,2472.168,2017-11-24T14:24:58Z
2017-11-24T12:26:33Z,42.805,6.029,13.2979,4.59977,2472.205,2017-11-24T14:28:01Z
2017-11-24T12:29:36Z,42.805,6.029,13.2980,4.59989,2472.182,2017-11-24T14:31:04Z
2017-11-24T12:32:39Z,42.805,6.029,13.2970,4.59989,2472.205,2017-11-24T14:34:07Z
2017-11-24T12:35:41Z,42.805,6.029,13.2968,4.59997,2472.205,2017-11-24T14:37:10Z
2017-11-24T12:38:44Z,42.805,6.029,13.2982,4.59993,2472.182,2017-11-24T14:40:12Z
2017-11-24T12:41:47Z,42.805,6.029,13.2981,4.59995,2472.205,2017-11-24T14:43:15Z
2017-11-24T12:44:50Z,42.805,6.029,13.2971,4.59992,2472.182,2017-11-24T14:46:18Z
2017-11-24T12:47:53Z,42.805,6.029,13.2981,4.59991,2472.16,2017-11-24T14:49:21Z
2017-11-24T12:50:56Z,42.805,6.029,13.2967,4.59990,2472.182,2017-11-24T14:52:24Z
2017-11-24T12:53:59Z,42.805,6.029,13.2967,4.59989,2472.145,2017-11-24T14:55:27Z
2017-11-24T12:57:02Z,42.805,6.029,13.2965,4.59992,2472.16,2017-11-24T14:58:30Z
2017-11-24T13:00:05Z,42.805,6.029,13.2970,4.59988,2472.145,2017-11-24T15:01:33Z
2017-11-24T13:03:08Z,42.805,6.029,13.2975,4.59987,2472.182,2017-11-24T15:04:36Z
2017-11-24T13:06:10Z,42.805,6.029,13.2980,4.59986,2472.16,2017-11-24T15:07:39Z
2017-11-24T13:09:13Z,42.805,6.029,13.2979,4.59978,2472.182,2017-11-24T15:10:41Z
2017-11-24T13:12:16Z,42.805,6.029,13.2968,4.59982,2472.182,2017-11-24T15:13:44Z
2017-11-24T13:15:19Z,42.805,6.029,13.2971,4.59983,2472.16,2017-11-24T15:16:47Z
2017-11-24T13:18:22Z,42.805,6.029,13.2966,4.59984,2472.16,2017-11-24T15:19:50Z
2017-11-24T13:21:25Z,42.805,6.029,13.2977,4.59982,2472.145,2017-11-24T15:22:53Z
2017-11-24T13:24:28Z,42.805,6.029,13.2964,4.59983,2472.16,2017-11-24T15:25:56Z
2017-11-24T13:27:31Z,42.805,6.029,13.2964,4.59976,2472.182,2017-11-24T15:28:59Z
2017-11-24T13:30:34Z,42.805,6.029,13.2981,4.59977,2472.16,2017-11-24T15:32:02Z
2017-11-24T13:33:37Z,42.805,6.029,13.2964,4.59980,2472.16,2017-11-24T15:35:05Z
2017-11-24T13:36:39Z,42.805,6.029,13.2970,4.59983,2472.16,2017-11-24T15:38:08Z
2017-11-24T13:39:42Z,42.805,6.029,13.2964,4.59980,2472.16,2017-11-24T15:41:10Z
2017-11-24T13:42:45Z,42.805,6.029,13.2964,4.59980,2472.16,2017-11-24T15:44:13Z
2017-11-24T13:45:48Z,42.805,6.029,13.2955,4.59987,2472.182,2017-11-24T15:47:16Z
2017-11-24T13:48:51Z,42.805,6.029,13.2968,4.59985,2472.16,2017-11-24T15:50:19Z
2017-11-24T13:51:54Z,42.805,6.029,13.2961,4.59985,2472.145,2017-11-24T15:53:22Z
2017-11-24T13:54:57Z,42.805,6.029,13.2966,4.59984,2472.16,2017-11-24T15:56:25Z
2017-11-24T13:58:00Z,42.805,6.029,13.2966,4.59981,2472.137,2017-11-24T15:59:28Z
2017-11-24T14:01:03Z,42.805,6.029,13.2971,4.59984,2472.182,2017-11-24T16:02:31Z
2017-11-24T14:04:05Z,42.805,6.029,13.2985,4.59973,2472.16,2017-11-24T16:05:34Z
2017-11-24T14:07:08Z,42.805,6.029,13.2969,4.59988,2472.115,2017-11-24T16:08:37Z
2017-11-24T14:10:11Z,42.805,6.029,13.2952,4.59971,2472.16,2017-11-24T16:11:39Z
2017-11-24T14:13:14Z,42.805,6.029,13.2951,4.59993,2472.137,2017-11-24T16:14:42Z
2017-11-24T14:16:17Z,42.805,6.029,13.2961,4.59994,2472.137,2017-11-24T16:17:45Z
2017-11-24T14:19:20Z,42.805,6.029,13.2964,4.59992,2472.137,2017-11-24T16:20:48Z
2017-11-24T14:22:23Z,42.805,6.029,13.2950,4.59995,2472.137,2017-11-24T16:23:51Z
2017-11-24T14:25:26Z,42.805,6.029,13.2958,4.59990,2472.123,2017-11-24T16:26:54Z
2017-11-24T14:28:29Z,42.805,6.029,13.2961,4.59982,2472.145,2017-11-24T16:29:57Z
2017-11-24T14:31:32Z,42.805,6.029,13.2961,4.59995,2472.137,2017-11-24T16:33:00Z
2017-11-24T14:34:34Z,42.805,6.029,13.2950,4.59981,2472.137,2017-11-24T16:36:03Z
2017-11-24T14:37:37Z,42.805,6.029,13.2969,4.59977,2472.137,2017-11-24T16:39:05Z
2017-11-24T14:40:40Z,42.805,6.029,13.2953,4.59980,2472.115,2017-11-24T16:42:08Z
2017-11-24T14:43:43Z,42.805,6.029,13.2958,4.59982,2472.123,2017-11-24T16:45:11Z
2017-11-24T14:46:46Z,42.805,6.029,13.2948,4.59992,2472.145,2017-11-24T16:48:14Z
2017-11-24T14:49:49Z,42.805,6.029,13.2954,4.59981,2472.123,2017-11-24T16:51:17Z
2017-11-24T14:52:52Z,42.805,6.029,13.2956,4.59981,2472.16,2017-11-24T16:54:20Z
2017-11-24T14:55:55Z,42.805,6.029,13.2960,4.59972,2472.1,2017-11-24T16:57:23Z
2017-11-24T14:58:58Z,42.805,6.029,13.2962,4.59987,2472.16,2017-11-24T17:00:26Z